Location: Stonelick Lake State Park
(39.2170°N, 84.0850°W)
Time: 03:36:43
(UTC-04:00)

Daily predictions for brighter satellites

Satellite Brightness Start Highest point End
(mag) Time Altitude Azimuth Time Altitude Azimuth Time Altitude Azimuth
COSMOS 2428 3.7 00:00:00 10° NW 00:05:07 35° WSW 00:06:47 29° SW
Cosmos 1455 2.5 00:04:09 10° NNW 00:07:33 63° NW 00:07:33 63° NW
Cosmos 1869 3.4 00:03:54 10° N 00:07:40 77° N 00:07:40 77° N
Cosmos 2297 Rocket 2.1 00:10:25 61° SSE 00:11:10 69° ESE 00:16:48 10° NNE
H-2A R/B 3.0 00:10:13 34° SW 00:11:44 41° W 00:16:51 10° NNW
ATLAS 3B R/B 3.4 00:06:27 10° NNW 00:13:07 44° NE 00:16:06 28° E
Cosmos 990 Rocket 4.3 00:13:38 39° SW 00:15:20 60° WNW 00:20:26 10° NNE
Lacrosse 4 Rocket 3.0 00:15:17 10° N 00:19:07 28° NE 00:19:35 27° ENE
Cosmos 1869 Rocket 4.2 00:21:53 46° ENE 00:21:53 46° ENE 00:25:37 10° NNE
Cosmos 1269 Rocket 4.3 00:16:20 10° N 00:21:33 54° ENE 00:22:09 51° E
Cosmos 2219 Rocket 2.5 00:16:09 10° NNW 00:21:34 53° WSW 00:22:26 48° SW
ALOS 2 3.9 00:27:29 30° ENE 00:27:29 30° ENE 00:31:11 10° N
Cosmos 389 Rocket 4.4 00:24:58 10° NNE 00:26:58 24° NE 00:26:58 24° NE
BREEZE-M DEB (TANK) 4.1 00:26:28 10° NW 00:27:41 30° NW 00:27:41 30° NW
Terra 3.4 00:34:39 23° WSW 00:35:21 24° W 00:39:12 10° NW
Cosmos 1980 3.9 00:31:32 10° NNW 00:37:03 56° WSW 00:37:34 54° SW
Cosmos 44 Rocket 4.5 00:40:52 33° E 00:40:52 33° E 00:44:21 10° NE
H-2A R/B 3.7 00:37:20 10° NNE 00:40:11 35° ENE 00:40:11 35° ENE
CZ-4B R/B 3.5 00:44:09 24° NE 00:44:09 24° NE 00:46:02 10° N
COSMOS 2455 2.9 00:38:47 10° NNW 00:44:49 70° ENE 00:45:49 59° ESE
Cosmos 1125 Rocket 3.5 00:46:29 69° WSW 00:46:58 76° WNW 00:52:19 10° NNE
Cosmos 1900 4.4 00:42:51 10° NNW 00:47:46 68° NE 00:47:46 68° NE
Cosmos 2074 Rocket 4.0 00:47:39 57° ESE 00:48:22 61° E 00:54:34 10° NNE
BREEZE-M TANK 4.1 00:36:00 10° W 00:49:26 56° NNW 00:53:01 10° ENE
Meteor 2-3 Rocket 3.9 00:49:35 57° ESE 00:49:46 57° E 00:55:23 10° NNE
Cosmos 1048 Rocket 3.9 00:44:39 10° NNW 00:50:02 79° ENE 00:50:14 77° E
Cosmos 2237 Rocket 2.6 00:44:44 10° NW 00:50:11 47° WSW 00:50:31 46° WSW
NOSS 2-3 (C) 4.2 00:53:45 58° ENE 00:53:45 58° ENE 00:58:30 10° NE
Cosmos 1709 Rocket 4.4 00:52:27 41° SW 00:54:05 52° W 01:00:04 10° N
SeaSat 1 2.5 00:55:21 69° W 00:55:21 69° W 01:00:04 10° NNW
Cosmos 1703 Rocket 4.2 00:50:54 10° NNW 00:54:35 51° WNW 00:54:35 51° WNW
Cosmos 2221 Rocket 4.1 00:51:29 10° NNW 00:55:32 57° WNW 00:55:32 57° WNW
Okean 1-7 3.5 00:52:09 10° N 00:55:37 58° N 00:55:37 58° N
Cosmos 2327 Rocket 4.4 00:57:08 64° SE 00:57:57 72° E 01:04:21 10° N
CZ-4C R/B 4.4 00:59:04 10° NNW 01:05:00 28° NE 01:11:25 10° E
Helios 1A Rocket 4.3 01:04:16 10° NNE 01:06:57 33° NE 01:06:57 33° NE
In-Cosmos 22 Rocket 4.1 01:12:49 77° SW 01:13:09 81° W 01:18:56 10° N
NOSS 2-3 (D) 3.9 01:14:26 81° N 01:14:26 81° N 01:19:46 10° NNE
Cosmos 2154 Rocket 4.4 01:14:44 46° ESE 01:15:20 47° E 01:21:19 10° NNE
ASTEX 1 3.4 01:13:21 10° N 01:17:51 75° NNE 01:17:51 75° NNE
Cosmos 1782 4.5 01:16:23 10° NNE 01:18:58 28° NE 01:18:58 28° NE
SL-08 ROCKET BODY 4.3 01:20:32 73° SSW 01:21:12 88° W 01:27:25 10° N
Cosmos 372 Rocket 4.2 01:21:19 63° W 01:21:30 63° WNW 01:26:43 10° NNE
Cosmos 158 Rocket 3.9 01:19:52 10° NNW 01:24:59 80° NNE 01:24:59 80° NNE
Cosmos 1340 Rocket 4.1 01:26:58 37° NNE 01:26:58 37° NNE 01:29:27 10° NNE
Cosmos 2184 Rocket 4.0 01:26:37 61° SW 01:27:27 69° W 01:33:39 10° N
Cosmos 2227 Rocket 4.3 01:24:14 11° W 01:28:12 21° NW 01:32:26 10° N
Cosmos 2263 Rocket 3.8 01:35:36 21° E 01:35:36 21° E 01:39:24 10° NE
Cosmos 2333 Rocket 4.2 01:33:59 10° WNW 01:37:11 16° W 01:37:11 16° W
FALCON 9 R/B 3.5 01:27:17 10° W 01:36:25 37° WSW 01:36:25 37° WSW
SL-16 R/B 3.0 01:36:48 10° NW 01:41:37 39° W 01:41:37 39° W
Cosmos 2227 4.1 01:41:57 80° W 01:42:09 82° WNW 01:47:51 10° NNE
ATLAS 2AS CENTAUR R/B 4.2 01:35:30 11° WSW 01:42:16 38° NW 01:49:43 10° NNE
Cosmos 2341 Rocket 4.0 01:44:41 61° SE 01:45:26 66° E 01:51:46 10° NNE
CZ-2C R/B 3.8 01:46:35 47° ESE 01:47:33 51° ENE 01:53:01 10° N
Uosat 12 SS-18 rocket 4.5 01:48:32 68° NNW 01:48:32 68° NNW 01:52:40 10° NNE
Sich 1 Rocket 4.1 01:49:59 56° NNE 01:49:59 56° NNE 01:53:38 10° N
Meteor 1-27 Rocket 4.1 01:44:38 10° N 01:50:23 55° ENE 01:51:04 52° ESE
Cosmos 44 3.6 01:51:01 68° ENE 01:51:01 68° ENE 01:56:00 10° NE
Cosmos 2251 Rocket 3.6 01:47:50 10° NNW 01:52:48 71° WNW 01:52:48 71° WNW
Cosmos 2297 Rocket 4.4 01:52:11 11° W 01:55:45 18° NW 01:59:35 10° N
Lacrosse 4 Rocket 3.5 01:53:59 10° NW 01:55:56 21° WNW 01:55:56 21° WNW
Cosmos 962 Rocket 4.3 01:57:34 73° SSE 01:58:09 82° E 02:04:17 10° N
Geosat 4.4 01:54:24 10° NNE 01:59:16 52° WNW 01:59:41 50° WNW
Cosmos 1733 Rocket 4.0 02:02:26 41° NW 02:02:26 41° NW 02:06:02 10° N
ATLAS 3B R/B 3.4 01:57:30 10° NW 02:03:20 36° WSW 02:03:20 36° WSW
Meteor 2-10 Rocket 4.0 01:59:28 10° NNW 02:04:51 52° W 02:04:51 52° W
CZ-2C R/B 2.5 01:59:42 10° N 02:04:56 75° WNW 02:04:56 75° WNW
SL-8 Rocket 4.3 02:05:15 51° SE 02:06:12 56° E 02:12:21 10° NNE
Cosmos 1943 3.8 02:01:31 10° NNW 02:07:04 52° ENE 02:08:22 43° ESE
USA 238 DEB 3.6 02:01:35 10° NW 02:08:37 75° WSW 02:09:41 63° S
USA 238 3.6 02:01:41 10° NW 02:08:43 75° WSW 02:09:48 63° S
Meteor 2-6 Rocket 4.2 02:05:26 10° NNW 02:11:14 71° W 02:11:32 69° WSW
Cosmos 2218 Rocket 4.4 02:10:59 46° ESE 02:12:03 51° E 02:18:08 10° NNE
Okean 3 4.2 02:08:29 10° N 02:12:06 50° NE 02:12:06 50° NE
H-2A ROCKET BODY 4.2 01:46:56 10° W 02:14:19 40° SW 02:14:26 40° SSW
Cosmos 1603 3.9 02:10:13 10° NNW 02:15:27 55° W 02:15:27 55° W
Cosmos 1606 4.0 02:12:15 10° N 02:14:46 39° N 02:14:46 39° N
Cosmos 1378 Rocket 4.0 02:12:14 10° N 02:15:49 59° N 02:15:49 59° N
Meteor 2-13 Rocket 4.3 02:17:20 68° SSE 02:18:04 78° E 02:24:13 10° N
Cosmos 2366 rocket 4.2 02:27:26 51° SE 02:28:33 60° E 02:34:36 10° NNE
Okean 2 Rocket 3.3 02:30:45 68° NE 02:30:45 68° NE 02:34:48 10° N
USA 234 4.0 02:24:09 10° ESE 02:30:25 51° NE 02:36:42 10° NW
Cosmos 1782 Rocket 3.9 02:37:33 61° NNW 02:37:33 61° NNW 02:41:19 10° N
NOSS 3-2 (C) 4.2 02:34:53 10° NNW 02:42:25 71° NE 02:48:50 17° SE
Cosmos 1727 Rocket 4.0 02:44:36 10° N 02:50:50 74° E 02:52:37 48° SSE
Cosmos 864 Rocket 4.4 02:51:33 59° S 02:52:50 88° E 02:59:02 10° N
CZ-4C R/B 2.8 02:47:01 10° NW 02:54:13 75° WSW 02:57:14 41° SSE
Cosmos 1825 3.8 03:01:12 27° NW 03:01:12 27° NW 03:03:40 10° NNW
Cosmos 1975 Rocket 3.8 02:56:52 10° NNW 03:00:19 41° WNW 03:00:19 41° WNW
Cosmos 1408 4.3 03:02:06 26° NW 03:02:06 26° NW 03:04:32 10° NNW
ERS-2 3.7 02:59:11 10° NE 03:02:13 29° E 03:02:13 29° E
NOSS 3-4 (A) 3.7 03:01:27 45° WSW 03:03:25 66° NW 03:09:58 10° NNE
NOSS 3-4 (C) 3.7 03:01:33 45° WSW 03:03:30 67° NW 03:10:03 10° NNE
Cosmos 1607 4.4 03:00:01 10° NW 03:05:24 40° WSW 03:05:24 40° WSW
NOSS 3-2 (A) 3.9 02:59:10 10° NW 03:06:44 74° WSW 03:10:44 33° SSE
PSLV R/B 3.5 03:03:38 10° N 03:07:38 70° NW 03:07:38 70° NW
AQUA 4.5 03:05:00 10° NNE 03:09:34 44° E 03:10:24 40° SE
Cosmos 1536 Rocket 3.6 03:08:37 10° N 03:12:59 71° E 03:13:24 65° ESE
Cosmos 1371 Rocket 4.0 03:12:16 60° SW 03:13:07 73° WNW 03:18:30 10° NNE
RESURS DK-1 2.4 03:13:25 72° NW 03:13:25 72° NW 03:17:25 10° NNE
Cosmos 2056 Rocket 3.4 03:13:32 63° S 03:14:25 85° ESE 03:19:43 10° NNE
Cosmos 1844 Rocket 3.9 03:14:55 27° SE 03:16:46 33° ESE 03:21:46 10° NE
Cosmos 2263 Rocket 2.7 03:17:17 41° WSW 03:18:41 50° WNW 03:24:13 10° NNE
Cosmos 407 Rocket 4.0 03:19:27 10° N 03:24:31 55° ENE 03:27:41 22° SE
Cosmos 2151 Rocket 3.8 03:28:41 53° W 03:28:52 54° W 03:33:15 10° N
Meteor 1-25 Rocket 4.2 03:27:44 47° S 03:29:29 86° E 03:35:17 10° N
IRS-1C 4.4 03:24:17 10° NNE 03:29:34 60° E 03:31:24 39° SSE
COSMOS 2406 3.6 03:24:16 10° NNW 03:30:00 62° ENE 03:34:45 15° SE
Okean 1-7 Rocket 4.4 03:30:06 10° N 03:34:32 48° E 03:36:41 27° SE
Cosmos 2278 Rocket 4.0 03:32:46 15° SE 03:35:53 23° E 03:40:14 10° NE
SL-27 R/B 3.4 03:34:22 10° N 03:37:56 47° ENE 03:39:04 34° ESE
SL-16 R/B 3.9 03:32:57 10° SE 03:38:35 37° ENE 03:44:14 10° N
Cosmos 909 Rocket 4.3 03:38:46 36° SW 03:41:28 66° WNW 03:48:44 10° NNE
Okean 1 Rocket 3.2 03:41:19 49° SSE 03:42:24 71° E 03:46:51 10° NNE
IRS-P3 4.4 03:39:30 10° N 03:44:45 57° WNW 03:46:22 40° SW
UNK 4.5 03:46:40 30° SSW 03:50:40 49° SSE 03:54:28 10° ENE
Cosmos 1867 3.9 03:45:59 10° NW 03:51:06 42° WSW 03:51:47 40° SW
NOSS 2-2 (E) 4.4 03:51:36 33° SSE 03:52:43 39° ESE 03:57:04 10° NE
Cosmos 1242 Rocket 4.3 03:52:14 10° NW 03:54:02 21° WNW 03:54:02 21° WNW
Cosmos 1821 Rocket 4.0 03:52:01 30° S 03:55:23 87° E 04:01:50 10° N
CBERS 1 LM4 rocket 4.3 03:52:45 10° N 03:57:42 80° WNW 03:59:26 40° SSW
GP-B 3.1 03:53:20 10° N 03:57:45 67° W 03:58:56 46° SSW
Resurs 1-4 Rocket 3.2 03:52:53 10° NNE 03:57:52 39° E 04:01:30 17° SSE
Cosmos 2123 Rocket 4.5 03:52:30 10° N 03:58:47 61° E 04:04:55 10° SSE
Cosmos 1954 Rocket 4.3 03:54:01 10° NNW 03:59:10 65° ENE 04:04:18 10° SSE
Cosmos 1536 3.9 04:00:51 23° SSE 04:02:57 41° E 04:06:48 10° NNE
Abrixas rocket 3.7 04:02:23 26° WNW 04:03:33 33° NNW 04:06:39 10° NE
Meteor 2-14 Rocket 4.5 04:03:37 24° S 04:07:25 77° E 04:13:30 10° N
Meteor 2-21 Rocket 4.4 04:08:12 27° S 04:11:43 86° W 04:17:51 10° N
UNKNOWN OBJECT B 4.4 04:09:11 10° NNE 04:12:53 32° E 04:15:49 14° SSE
USA 234 3.4 04:07:12 10° SSE 04:13:25 47° SW 04:19:41 10° WNW
Gbstr 26 Del rocket 2.6 04:12:40 44° SW 04:13:50 83° SE 04:17:36 10° NE
Cosmos 1633 3.4 04:13:03 24° SSE 04:14:50 45° E 04:18:19 10° NNE
Cosmos 1025 Rocket 3.4 04:10:53 10° N 04:15:08 61° E 04:18:38 15° SSE
Meteor 2-15 4.5 04:13:20 10° N 04:19:31 83° E 04:25:35 10° S
Cosmos 724 4.3 04:14:11 10° NW 04:20:17 72° WSW 04:26:27 10° SSE
ARIANE 5 R/B 2.4 04:15:26 10° NNE 04:20:28 89° ESE 04:23:26 25° SSW
Cosmos 1452 Rocket 3.7 04:18:09 30° SW 04:20:34 56° WNW 04:25:46 10° N
ADEOS 3.8 04:15:49 10° N 04:20:54 54° WNW 04:23:30 28° SW
Meteor 1-19 Rocket 4.4 04:17:03 10° N 04:22:52 81° E 04:28:44 10° SSE
SME Rocket 3.4 04:20:10 10° SSE 04:23:51 57° ENE 04:27:47 10° N
SL-08 R/B 4.5 04:26:35 24° WSW 04:27:36 26° W 04:31:44 10° NW
COSMOS 2487 3.1 04:27:19 10° N 04:30:53 58° ENE 04:34:27 10° SSE
UNK 3.7 04:27:18 11° SSE 04:31:44 87° ENE 04:36:24 10° NNW
CENTAUR R/B 3.1 04:23:57 10° NW 04:31:52 87° WSW 04:40:12 10° SSE
EO 1 Del DPAF 3.2 04:29:13 17° SSE 04:32:09 87° WSW 04:36:05 10° NNW
Cosmos 1420 Rocket 4.0 04:29:24 24° SSW 04:32:44 87° WNW 04:38:04 10° NNE
Tiangong 1 2.5 04:34:49 22° SSE 04:34:49 22° SSE 04:36:19 10° SE
Cosmos 1544 Rocket 3.8 04:30:36 18° S 04:33:53 69° E 04:38:17 10° NNE
Meteor 1-11 Rocket 3.9 04:30:22 22° SSW 04:34:14 67° W 04:40:11 10° N
USA 161 2.5 04:35:20 29° W 04:35:20 29° W 04:37:44 10° NNW
ERS-2 4.1 04:33:35 10° NNW 04:36:02 17° WNW 04:37:04 15° W
Cosmos 1812 4.3 04:34:10 10° NW 04:36:57 19° W 04:37:16 19° W
Cosmos 1023 Rocket 4.4 04:31:57 10° NNW 04:37:05 86° WSW 04:42:09 10° SSE
MOS 1-B 4.4 04:34:47 10° NNE 04:40:38 84° ESE 04:45:39 14° SSW
CZ-4C R/B 4.4 04:38:26 10° WNW 04:41:58 14° WSW 04:42:19 14° WSW
H-2A R/B 4.5 04:39:50 18° SW 04:45:12 28° S 05:15:46 10° SE
OTV 4 2.3 04:48:07 16° S 04:48:07 16° S 04:49:13 10° SSE
Cosmos 1400 Rocket 2.7 04:44:58 20° SSW 04:47:35 82° W 04:51:32 10° N
CZ-2D R/B 2.2 04:44:31 10° N 04:49:56 70° WNW 04:54:25 15° SSW
Cosmos 1892 Rocket 3.5 04:52:37 10° NNW 04:56:57 66° W 05:01:14 10° S
Cosmos 1140 Rocket 3.5 04:52:00 10° NNW 04:57:02 55° WSW 05:02:00 10° S
Cosmos 1844 Rocket 3.7 04:56:36 15° WSW 05:00:34 34° WNW 05:05:43 10° N
Meteor 1-23 Rocket 4.2 04:56:48 10° NNW 05:02:29 67° W 05:08:03 10° S
NOSS 2-2 (D) 4.1 04:59:44 17° WSW 05:02:43 47° NW 05:07:20 10° NNE
Cosmos 1850 Rocket 4.0 04:59:23 10° NNW 05:04:34 64° WSW 05:09:46 10° S
BREEZE-M DEB (TANK) 2.3 05:02:53 18° SSW 05:04:38 43° SSE 05:07:32 10° ENE
Cosmos 1844 4.4 05:00:55 16° SW 05:05:11 42° WNW 05:10:38 10° N
Timation 2 Rocket 4.0 04:59:18 10° NNW 05:05:30 82° ENE 05:11:29 10° SSE
CZ-4B R/B 4.1 05:01:17 10° NNE 05:05:40 46° E 05:09:58 10° S
Cosmos 1741 Rocket 4.0 05:00:32 10° NNW 05:05:46 65° WSW 05:10:56 10° S
Cosmos 1447 Rocket 4.5 05:03:02 10° NNW 05:09:08 65° W 05:15:10 10° S
Cosmos 2061 Rocket 4.2 05:06:23 10° S 05:12:41 83° E 05:19:05 10° N
Cosmos 1315 Rocket 2.8 05:09:04 10° SSW 05:13:04 70° W 05:17:08 10° N
Cosmos 2297 3.8 05:11:31 10° SSW 05:17:10 85° ESE 05:22:54 10° NNE
Cosmos 2278 Rocket 2.7 05:14:38 12° SW 05:19:36 47° WNW 05:25:05 10° NNE
Okean 2 3.7 05:16:04 10° NNW 05:19:59 45° W 05:23:54 10° SSW
APEX 3.1 05:17:50 10° S 05:20:32 56° ESE 05:23:41 10° NNE
SL-16 R/B 3.2 05:16:38 10° SSW 05:22:11 34° W 05:27:46 10° NNW
Meteor 1-5 Rocket 4.5 05:18:13 10° SSW 05:24:02 60° W 05:29:45 10° N
Okean O Rocket 1.6 05:20:42 10° N 05:25:01 66° WNW 05:29:19 10° SSW
Cosmos 1975 2.9 05:23:10 10° S 05:27:09 79° E 05:31:10 10° N
ATLAS 5 CENTAUR R/B 2.4 05:22:08 10° NW 05:28:12 82° WSW 05:34:38 10° SSE
Cosmos 1602 Rocket 3.5 05:24:04 10° N 05:28:24 87° W 05:32:45 10° S
CZ-2C R/B 3.9 05:23:50 10° S 05:28:30 60° W 05:33:14 10° NNW
Cosmos 1346 Rocket 3.9 05:25:30 10° N 05:29:27 49° ENE 05:33:21 10° SSE
CZ-2D R/B 4.1 05:27:10 10° N 05:30:54 38° WNW 05:34:38 10° SW
CZ-4B R/B 3.3 05:30:13 10° N 05:35:54 75° WNW 05:41:32 10° SSW
USA 129 3.4 05:35:33 10° SW 05:37:05 17° W 05:38:38 10° NW
Resurs 1-4 Rocket 3.4 05:33:11 10° NNW 05:37:28 25° WNW 05:41:43 10° WSW
Cosmos 1461 4.2 05:34:00 10° WSW 05:38:16 33° NW 05:42:28 10° NNE
Cosmos 2082 Rocket 2.4 05:33:31 10° NNW 05:39:17 85° ENE 05:44:59 10° SSE
CZ-3 Stage 3 4.4 05:27:04 10° WSW 05:57:06 45° S 06:03:05 10° ESE
